Location: Blascoeles
(40.7536°N, 4.4968°W)
Time: 00:28:54
(UTC+00:00)

Daily predictions for brighter satellites

Satellite Brightness Start Highest point End
(mag) Time Altitude Azimuth Time Altitude Azimuth Time Altitude Azimuth
Cosmos 2082 Rocket 4.4 03:52:50 18° NE 03:53:46 19° NE 03:57:37 10° E
COSMOS 2455 4.2 03:57:05 35° ENE 03:57:05 35° ENE 04:01:49 10° ESE
Cosmos 2278 Rocket 3.4 04:13:39 35° NE 04:13:39 35° NE 04:17:02 10° NNE
USA 215 3.8 04:11:04 10° ESE 04:17:15 48° NNE 04:17:51 46° NNE
Cosmos 2221 4.1 04:32:04 33° E 04:32:04 33° E 04:35:22 10° SE
Cosmos 1833 Rocket 2.9 04:34:00 65° ESE 04:34:00 65° ESE 04:38:53 10° SSE
Hubble Space Telescope 3.5 04:45:50 11° SSE 04:45:50 11° SSE 04:46:42 10° SSE
Cosmos 1763 Rocket 3.4 04:52:50 79° SSE 04:52:50 79° SSE 04:57:45 10° SSE
Envisat 3.9 04:56:01 10° NNE 05:00:56 48° E 05:05:50 10° S
Cosmos 1076 Rocket 4.1 05:00:54 10° S 05:05:10 57° E 05:09:28 10° NNE
YAOGAN 6 3.1 05:05:25 10° NNE 05:09:03 58° E 05:12:40 10° S
COSMO-SKYMED 1 3.5 05:06:35 10° SE 05:10:43 46° ENE 05:14:38 11° N
Cosmos 2084 Rocket 4.1 05:13:26 24° S 05:15:23 47° ESE 05:19:07 10° NE
NOSS 3-2 (A) 3.6 05:10:53 10° SSW 05:16:13 65° ESE 05:22:20 10° NE
FALCON 9 DEB 4.4 05:19:05 33° ESE 05:19:05 33° ESE 05:21:25 10° ENE
Cosmos 1464 Rocket 3.9 05:13:09 10° NNW 05:19:27 71° W 05:25:38 10° S
H-2A R/B 2.6 05:18:21 10° NNE 05:22:03 79° ESE 05:25:45 10° S
CENTAUR R/B 3.0 05:17:26 10° SSW 05:22:54 58° ESE 05:29:26 10° NE
Meteor 2-3 Rocket 4.1 05:23:34 10° S 05:29:06 65° E 05:34:43 10° NNE
Gbstr 26 Del rocket 4.1 05:28:19 26° N 05:29:21 29° NNE 05:33:04 10° E
Landsat 5 4.1 05:26:45 10° SSE 05:31:10 62° ENE 05:35:38 10° N
Tiangong 3.2 05:32:03 18° S 05:32:03 18° S 05:33:36 10° SSE
COSMOS 2406 3.5 05:34:29 35° WNW 05:36:06 43° WSW 05:41:24 10° S
Cosmos 1842 Rocket 3.8 05:36:09 40° WNW 05:37:06 47° W 05:41:22 10° SSW
NOSS 8 (A) 4.3 05:35:12 24° SSW 05:37:14 84° ESE 05:40:15 10° NE
Cosmos 1850 Rocket 4.3 05:35:29 26° WSW 05:38:01 43° WNW 05:43:07 10° N
Cosmos 2082 Rocket 2.1 05:34:44 22° NNW 05:38:26 71° WSW 05:44:00 10° SSE
Cosmos 2297 4.0 05:33:42 10° SSW 05:39:24 70° ESE 05:45:07 10° NNE
COSMOS 2455 3.3 05:40:17 30° WNW 05:42:13 38° WSW 05:47:42 10° S
Kosmos-917 4.2 05:43:20 35° NNW 05:43:20 35° NNW 05:46:25 10° NNE
USA 238 DEB 3.8 05:41:28 10° SSW 05:47:51 72° ESE 05:54:35 10° NE
USA 238 3.8 05:41:35 10° SSW 05:47:57 72° ESE 05:54:41 10° NE
Cosmos 1782 3.2 05:50:44 10° N 05:54:41 64° E 05:58:35 10° SSE
Cosmos 2278 Rocket 3.3 05:55:34 22° WNW 05:55:56 22° NW 06:00:18 10° N
Cosmos 1900 4.4 05:52:49 21° NW 05:56:08 62° WSW 06:01:06 10° SSE
NOAA 11 4.4 05:52:01 10° NNE 05:57:30 74° ESE 06:02:57 10° S
MOS 1-B Rocket 4.3 05:51:38 10° S 05:58:21 50° W 06:04:13 10° NNW
SKYMED 2 3.7 05:54:31 10° S 05:58:44 50° W 06:02:59 10° NNW
CZ-2C R/B 3.7 05:54:24 10° NNE 05:59:07 55° E 06:03:58 10° S
Cosmos 1943 Rocket 2.1 05:53:46 10° SSW 05:59:27 82° WNW 06:05:09 10° NNE
CZ-2C R/B 2.7 05:53:59 10° S 05:59:28 59° W 06:04:53 10° NNW
USA 215 3.5 05:53:48 10° SSE 06:00:10 55° SW 06:05:12 17° WNW
Cosmos 2034 Rocket 4.2 05:54:58 10° NNW 06:00:52 47° W 06:06:48 10° SSW
Cosmos 2344 3.8 05:58:38 10° WSW 06:05:47 46° NW 06:13:13 10° NNE
IRAS Rocket 4.3 06:01:11 10° SSE 06:06:43 80° ENE 06:12:14 10° NNW
Cosmos 540 Rocket 4.2 06:05:18 17° NW 06:08:20 31° W 06:12:49 10° SSW
Cosmos 1933 3.4 06:04:26 10° NNW 06:08:21 52° W 06:12:13 10° S
Cosmos 2221 4.0 06:08:59 18° W 06:08:59 18° W 06:11:33 10° SW
SJ-7 4.4 06:08:40 10° N 06:12:54 80° WNW 06:17:04 10° SSW
ADEOS 3.5 06:07:55 10° N 06:13:07 69° WNW 06:18:17 10° SSW
OAO 3 Rocket 4.1 06:09:09 13° WSW 06:13:14 42° S 06:17:52 10° ESE
Iridium 2 3.6 06:10:42 10° S 06:14:29 84° W 06:18:17 10° N
Meteor 1-31 Rocket 3.5 06:11:11 10° N 06:14:37 31° WNW 06:18:04 10° SW
Cosmos 1833 Rocket 4.2 06:15:46 14° W 06:16:27 14° W 06:19:22 10° SW
Cosmos 2151 3.6 06:13:31 10° SW 06:17:23 33° WNW 06:21:18 10° N
BREEZE-M DEB (TANK) 4.3 06:03:14 10° SW 06:19:07 66° SSE 06:23:09 10° ENE
Tsikada Rocket 4.3 06:14:12 10° SSW 06:20:03 44° WNW 06:25:59 10° N
CZ-4C R/B 3.3 06:18:41 10° S 06:21:42 37° W 06:24:40 10° NNW
Cosmos 2279 Rocket 4.2 06:15:54 10° N 06:22:06 74° E 06:28:16 10° SSE
Hubble Space Telescope 3.3 06:23:36 10° SW 06:25:55 15° S 06:28:15 10° SE
Cosmos 1812 2.7 06:23:03 10° N 06:26:55 89° ESE 06:30:45 10° S
Cosmos 1634 Rocket 4.0 06:22:51 10° NNW 06:29:02 62° W 06:35:10 10° S
H-2A R/B 2.1 06:27:15 10° SSE 06:31:25 83° ENE 06:35:42 10° NNW
FALCON 9 DEB 2.8 06:30:43 10° WSW 06:33:33 51° NW 06:36:24 10° NE
Cosmos 1939 Rocket 2.8 06:30:31 10° NNE 06:34:31 88° ESE 06:38:25 10° SSW
Cosmos 1766 Rocket 3.5 06:32:10 10° SSW 06:36:31 77° W 06:40:52 10° N
Cosmos 2098 Rocket 2.7 06:33:36 10° SSW 06:36:45 50° WNW 06:40:34 10° N
FALCON 9 R/B 3.9 06:16:28 10° W 06:37:05 60° SSW 06:42:41 10° ESE
SMAP 3.3 06:33:31 10° NNE 06:38:12 78° ESE 06:42:50 10° S
Envisat 4.2 06:35:54 10° NNW 06:39:35 21° WNW 06:43:15 10° WSW
FALCON 9 DEB 3.0 06:40:34 10° SW 06:43:56 83° NW 06:47:21 10° NE
COSMO-SKYMED 1 4.2 06:44:34 10° SW 06:47:06 15° W 06:49:40 10° NW
BREEZE-M DEB 4.1 06:44:41 10° SW 06:47:41 58° SE 06:56:22 10° ENE
FALCON 9 DEB 3.7 06:45:28 10° W 06:47:58 27° NNW 06:50:30 10° NNE
DMSP B5D2-2 4.3 06:43:01 10° S 06:48:05 50° W 06:53:10 10° NNW
Cosmos 2369 Rocket 2.2 06:45:24 10° SSW 06:50:57 71° WNW 06:56:34 10° NNE
